Startpagina
METAR-TAF:

METAR-TAF

Vliegvelden :

Schaffen

Diest, België

breedte: 51-00N, lengte: 005-04E, hoogte: 30 m

Actueel weer

Dit bericht is 42 minuten geleden gemaakt, om 02:25 UTC
Wind 2 kt uit variabele richting
Temperatuur 16°C
Vochtigheid 100%
Druk 1016 hPa
Zicht: 4900 m
regen

METAR: EBDT 170225Z AUTO VRB02KT 4900 RA FEW001/// BKN003/// OVC095/// 16/16 Q1016 YLO

Tijdstip: 05:07 (03:07 UTC)


TAF: ontbreekt

Waarnemingen en weersverwachtingen van meer dan 4000 vliegvelden (METAR en TAF).

De beschikbare stations zijn de gele en rode punten op de kaart.

Ga met uw muis naar het station om de naam te zien.

Klik dan om waarnemingen en weersverwachtingen te zien.

kaart wijzigen: klik op de groene knoppen met een zwart kruis om in te zoomen, op de groene knop met een streepje om uit te zoomen of op de groene pijlen voor aangrenzende kaarten.


METAR-TAF: